Date,TemperatureHighF,TemperatureAvgF,TemperatureLowF,DewpointHighF,DewpointAvgF,DewpointLowF,HumidityHigh,HumidityAvg,HumidityLow,PressureMaxIn,PressureMinIn,WindSpeedMaxMPH,WindSpeedAvgMPH,GustSpeedMaxMPH,PrecipitationSumIn
2013-1-1,35,33,29,29,28,23,87,81,73,29.97,29.86,6,2,15,0.00
2013-6-20,73,66,60,65,62,59,98,90,73,30.33,30.21,2,0,8,0.00
2013-6-22,81,77,69,72,69,66,89,76,70,30.31,30.18,1,0,5,0.00
2013-6-23,75,71,68,71,67,65,90,88,85,30.24,30.22,1,0,5,0.00
2013-9-18,54,47,46,47,45,44,95,93,92,30.35,30.22,0,0,0,0.00
2013-9-19,72,60,50,61,54,46,93,81,65,30.22,30.12,2,0,12,0.00
2013-9-20,74,64,57,64,59,55,95,86,71,30.13,29.99,1,0,11,0.00
2013-9-21,65,61,57,63,59,56,98,96,89,30.00,29.72,3,0,11,0.62
2013-9-22,64,56,52,56,50,-100,98,85,67,29.98,29.77,5,1,12,0.54
2013-9-23,59,52,48,48,44,42,83,75,64,30.11,29.98,5,0,16,0.01
2013-9-24,66,54,44,50,46,40,88,75,54,30.14,29.99,3,0,7,0.00
2013-9-25,69,59,51,52,48,44,80,66,50,30.01,29.95,4,1,12,0.00
2013-9-26,68,59,54,55,50,45,82,73,61,30.12,29.98,3,0,7,0.00
2013-9-27,65,58,54,58,54,51,94,85,76,30.28,30.13,2,0,7,0.00
2013-9-28,61,56,52,54,52,48,95,87,75,30.35,30.24,5,0,8,0.00
2013-9-29,67,56,49,56,50,-100,97,83,64,30.24,30.10,2,0,9,0.00
2013-9-30,70,60,51,58,54,49,95,82,61,30.13,30.03,2,0,5,0.00
2013-10-1,66,64,58,59,57,54,87,80,78,30.08,30.04,0,0,3,0.00
2013-10-2,78,68,59,65,60,56,92,79,62,30.15,30.06,5,1,11,0.00
2013-10-3,75,68,63,67,62,60,91,83,74,30.18,30.13,3,0,8,0.00
2013-10-5,82,76,70,69,67,65,83,73,62,30.15,30.06,1,0,6,0.00
2013-10-6,83,73,66,69,66,63,92,79,59,30.10,29.98,3,0,13,0.00
2013-10-7,68,60,50,66,57,44,98,91,76,30.07,29.79,7,2,22,0.70
2013-10-8,61,53,47,49,45,43,85,74,57,30.32,30.07,5,1,15,0.02
2013-10-9,54,51,48,48,45,42,92,80,71,30.35,30.26,4,1,14,0.02
2013-10-10,56,52,48,55,50,45,98,95,86,30.26,30.04,7,2,20,3.28
2013-10-11,57,55,53,57,54,52,99,98,98,30.04,29.98,8,2,20,2.16
2013-10-12,62,58,55,58,55,52,99,93,77,30.21,30.02,5,2,21,1.26
2013-10-13,56,53,52,55,51,-100,99,96,94,30.34,30.21,6,2,16,0.32
2013-10-14,65,54,49,58,51,48,98,91,75,30.37,30.26,4,0,7,0.02
2013-10-15,65,57,50,54,50,40,94,78,53,30.27,30.10,4,0,8,0.01
2013-10-16,64,59,56,60,56,46,98,93,66,30.11,29.95,2,0,5,0.00
2013-10-17,68,61,54,62,59,50,98,94,80,29.95,29.74,5,1,25,0.14
2013-10-18,59,52,47,49,44,41,85,74,60,30.04,29.86,7,2,20,0.11
2013-10-19,57,52,48,54,47,41,96,85,77,30.03,29.79,6,1,15,0.08
2013-10-20,56,46,38,43,36,-100,88,72,55,30.10,29.88,7,1,15,0.08
2013-10-21,62,51,44,46,41,36,76,68,51,30.13,29.97,4,0,11,0.00
2013-10-22,54,49,43,48,41,30,87,74,58,29.97,29.83,5,1,15,0.00
2013-10-23,47,42,38,37,33,30,87,71,57,29.86,29.68,4,0,13,0.00
2013-10-24,44,37,33,34,31,28,92,79,60,30.09,29.86,5,2,13,0.00
2013-10-25,46,39,33,35,31,28,86,73,59,30.28,30.09,6,2,19,0.00
2013-10-26,50,40,30,34,30,25,82,68,51,30.28,29.92,4,1,12,0.00
2013-10-27,52,44,40,37,32,-100,77,65,52,30.14,29.93,6,2,17,0.00
2013-10-28,55,44,38,41,34,-100,77,68,56,30.29,30.14,4,1,7,0.00
2013-10-29,57,47,39,44,39,34,81,72,61,30.38,30.29,4,1,10,0.00
2013-10-30,62,53,46,54,48,42,95,85,73,30.32,30.17,3,0,8,0.02
2013-10-31,62,57,54,58,56,53,98,95,85,30.20,29.81,3,1,11,0.03
2013-11-1,67,60,55,61,53,46,97,78,55,29.78,29.59,6,2,18,0.06
2013-11-2,57,51,43,48,43,38,83,73,65,29.87,29.69,5,2,15,0.05
2013-11-3,49,42,32,40,31,-100,90,69,44,30.40,29.88,6,2,15,0.00
2013-11-4,39,32,26,25,22,18,72,66,56,30.59,30.41,5,1,15,0.00
2013-11-5,48,41,32,44,35,22,86,78,64,30.57,30.43,4,0,8,0.00
2013-11-6,61,52,45,52,48,43,94,85,72,30.45,30.06,5,1,10,0.00
2013-11-7,54,53,51,51,50,49,95,93,90,30.05,29.89,4,2,10,0.01